DW6451 Weather Reports


Display with metric or nautical units.
time (UTC)temp
F
wind
direction
speed
MPH
gust
MPH
rain 1hr
in
rain 24hr
in
rain mn
in
humidity
%
barometer
mb
20260903041612 64 82 0.0 0.0 0.00 0.00 0.00 87 1011.7
20260903040120 64 82 0.0 0.0 0.00 0.00 0.00 87 1011.7
20260903034602 64 82 0.0 0.0 0.00 0.00 0.00 86 1011.6
20260903033058 65 82 0.0 0.0 0.00 0.00 0.00 84 1011.6
20260903031600 65 82 0.0 0.0 0.00 0.00 0.00 83 1011.6
20260903030058 66 82 0.0 0.0 0.00 0.00 0.00 82 1011.5
20260903024557 67 82 0.0 0.0 0.00 0.00 0.00 80 1011.5
20260903023056 67 82 0.0 0.0 0.00 0.00 0.00 79 1011.3
20260903021558 68 82 0.0 0.0 0.00 0.00 0.00 78 1011.3
20260903020056 69 82 0.0 0.0 0.00 0.00 0.00 75 1011.3
20260903014556 69 82 0.0 0.0 0.00 0.00 0.00 73 1011.2
20260903013055 70 82 0.0 0.0 0.00 0.00 0.00 71 1011.1
20260903011555 71 82 0.0 0.0 0.00 0.00 0.00 69 1010.9
20260903010054 72 82 0.0 0.0 0.00 0.00 0.00 67 1010.8
20260903004557 73 82 0.0 0.0 0.00 0.00 0.00 65 1010.7
20260903003053 74 82 0.0 0.0 0.00 0.00 0.00 63 1010.7
20260903001602 75 82 0.0 1.0 0.00 0.00 0.00 62 1010.7
20260903000052 75 82 0.0 1.0 0.00 0.00 0.00 61 1010.6
20260902234550 76 90 0.0 5.0 0.00 0.00 0.00 60 1010.6
20260902233050 77 91 0.0 5.0 0.00 0.00 0.00 59 1010.5
20260902231550 78 85 0.0 2.0 0.00 0.00 0.00 58 1010.4
20260902230051 78 81 1.0 3.0 0.00 0.00 0.00 57 1010.5
20260902224555 79 80 1.0 4.0 0.00 0.00 0.00 56 1010.3
20260902223050 80 67 0.0 4.0 0.00 0.00 0.00 56 1010.2
20260902221551 80 97 1.0 7.0 0.00 0.00 0.00 55 1010.2
20260902220054 81 209 0.0 5.0 0.00 0.00 0.00 55 1010.1
20260902214545 81 350 2.0 7.0 0.00 0.00 0.00 54 1010.2
20260902213049 82 101 0.0 4.0 0.00 0.00 0.00 53 1010.2
20260902211544 83 5 2.0 5.0 0.00 0.00 0.00 52 1010.2
20260902210043 82 22 1.0 5.0 0.00 0.00 0.00 54 1010.2
20260902204542 83 338 1.0 5.0 0.00 0.00 0.00 53 1010.3
20260902203041 82 30 1.0 4.0 0.00 0.00 0.00 55 1010.4
20260902201542 82 19 1.0 7.0 0.00 0.00 0.00 54 1010.4
20260902200038 82 74 1.0 6.0 0.00 0.00 0.00 55 1010.4
20260902194543 81 342 1.0 5.0 0.00 0.00 0.00 58 1010.5
20260902193035 81 355 1.0 5.0 0.00 0.00 0.00 57 1010.6
20260902191538 79 340 1.0 6.0 0.00 0.00 0.00 58 1010.7
20260902190049 79 42 2.0 7.0 0.00 0.00 0.00 58 1010.8
20260902184532 79 355 3.0 7.0 0.00 0.00 0.00 58 1010.8
20260902183037 80 334 1.0 9.0 0.00 0.00 0.00 61 1010.8
20260902181532 80 325 2.0 6.0 0.00 0.00 0.00 57 1010.8
20260902180037 81 44 1.0 6.0 0.00 0.00 0.00 59 1011.0
20260902174531 81 5 2.0 4.0 0.00 0.00 0.00 57 1011.1
20260902173037 81 40 0.0 3.0 0.00 0.00 0.00 58 1011.2
20260902171535 81 5 1.0 5.0 0.00 0.00 0.00 60 1011.0
20260902170028 81 5 0.0 4.0 0.00 0.00 0.00 57 1011.1
20260902164530 81 5 1.0 4.0 0.00 0.00 0.00 57 1011.2
20260902163027 81 347 0.0 3.0 0.00 0.00 0.00 58 1011.2
20260902161530 79 348 0.0 3.0 0.00 0.00 0.00 60 1011.2
20260902160020 79 349 0.0 3.0 0.00 0.00 0.00 61 1011.3
20260902154515 77 350 0.0 3.0 0.00 0.00 0.00 62 1011.3
20260902153013 76 317 0.0 3.0 0.00 0.00 0.00 64 1011.3
20260902151511 76 305 0.0 3.0 0.00 0.00 0.00 65 1011.3
20260902150009 75 303 0.0 3.0 0.00 0.00 0.00 68 1011.4
20260902144508 75 303 0.0 3.0 0.00 0.00 0.00 70 1011.5
20260902143103 74 303 0.0 3.0 0.00 0.00 0.00 70 1011.7
20260902143000 74 303 0.0 3.0 0.00 0.00 0.00 71 1011.7
20260902141601 71 259 0.0 1.0 0.00 0.00 0.00 75 1011.8
20260902140057 69 259 0.0 3.0 0.00 0.00 0.00 80 1011.9
20260902134603 67 329 0.0 1.0 0.00 0.00 0.00 84 1012.0
20260902133049 66 329 0.0 1.0 0.00 0.00 0.00 87 1012.0
20260902131544 64 329 0.0 1.0 0.00 0.00 0.00 89 1012.0
20260902130044 63 329 0.0 1.0 0.00 0.00 0.00 91 1011.8
20260902124543 62 329 0.0 0.0 0.00 0.00 0.00 91 1011.5
20260902123042 61 329 0.0 0.0 0.00 0.00 0.00 90 1011.5
20260902121541 61 329 0.0 0.0 0.00 0.00 0.00 89 1011.4
20260902120018 62 329 0.0 0.0 0.00 0.00 0.00 88 1011.3
20260902114521 62 329 0.0 0.0 0.00 0.00 0.00 87 1011.2
20260902113021 63 329 0.0 0.0 0.00 0.00 0.00 86 1011.1
20260902111517 64 329 0.0 0.0 0.00 0.00 0.00 85 1011.0
20260902110016 64 329 0.0 0.0 0.00 0.00 0.00 84 1011.3
20260902104516 65 329 0.0 0.0 0.00 0.00 0.00 84 1011.2
20260902103013 65 329 0.0 0.0 0.00 0.00 0.00 85 1011.4
20260902101513 65 329 0.0 0.0 0.00 0.00 0.00 84 1011.6
20260902100015 65 329 0.0 0.0 0.00 0.00 0.00 83 1011.5
20260902094510 65 329 0.0 0.0 0.00 0.00 0.00 83 1011.3
20260902093010 65 329 0.0 0.0 0.00 0.00 0.00 83 1011.1
20260902091510 65 329 0.0 0.0 0.00 0.00 0.00 82 1011.1
20260902090008 65 329 0.0 0.0 0.00 0.00 0.00 82 1011.2
20260902084515 65 329 0.0 0.0 0.00 0.00 0.00 82 1011.1
20260902083006 66 329 0.0 1.0 0.00 0.00 0.00 82 1011.0
20260902081504 66 329 0.0 0.0 0.00 0.00 0.00 81 1010.6
20260902080002 66 329 0.0 0.0 0.00 0.00 0.00 81 1010.7
20260902074502 66 329 0.0 0.0 0.00 0.00 0.00 80 1010.9
20260902073001 66 329 0.0 0.0 0.00 0.00 0.00 80 1011.5
20260902071600 67 329 0.0 0.0 0.00 0.00 0.00 80 1011.1
20260902070059 67 329 0.0 0.0 0.00 0.00 0.00 79 1010.9
20260902064558 67 329 0.0 0.0 0.00 0.00 0.00 79 1010.8
20260902063114 67 329 0.0 0.0 0.00 0.00 0.00 78 1010.9
20260902061556 67 329 0.0 0.0 0.00 0.00 0.00 78 1011.3
20260902060107 67 329 0.0 0.0 0.00 0.00 0.00 78 1011.2
20260902054606 67 329 0.0 0.0 0.00 0.00 0.00 78 1010.9
20260902053053 67 329 0.0 0.0 0.00 0.00 0.00 77 1011.2
20260902051557 67 329 0.0 0.0 0.00 0.00 0.00 77 1011.3
20260902050050 67 329 0.0 0.0 0.00 0.00 0.00 76 1011.3
20260902044549 67 329 0.0 0.0 0.00 0.00 0.00 75 1011.4
20260902043106 67 329 0.0 0.0 0.00 0.00 0.00 74 1011.4